Montana Department of Transportation

Main Content

Accidents and Incidents Report

Hourly Weather Roundup

ASUS45 KTFX 020219
RWRMT 
MONTANA HOURLY WEATHER ROUNDUP
NATIONAL WEATHER SERVICE GREAT FALLS MT
819 PM MDT WED OCT 1 2014

NOTE: "FAIR" INDICATES FEW OR NO CLOUDS BELOW 12000 FEET WITH NO
SIGNIFICANT WEATHER AND/OR OBSTRUCTIONS TO VISIBILITY.

* THESE STATIONS ARE NOT UNDER NWS QUALITY CONTROL. THEY DO NOT
   REPORT WEATHER SUCH AS PRECIPITATION OR FOG.

MTZ001.007-043-020300-
WEST OF THE DIVIDE
CITY           SKY/WX    TMP DP  RH WIND       PRES   REMARKS
KALISPELL      CLOUDY    52  36  55 SW12      30.01F 
MISSOULA       CLOUDY    50  36  59 NW3       30.10S 
BUTTE          PTCLDY    43  25  49 NW12      30.09R 
MULLAN PASS    MOCLDY    36  34  92 VRB7G18   30.08R WCI  30 
* ESSEX        N/A       45  34  65 W4         N/A   
* LINCOLN      N/A       47  28  48 SW7G19     N/A   
* LOOKOUT PASS N/A       44  36  74 SE10G19    N/A   
* POLSON       N/A       47  32  56 S2G9       N/A   
* RONAN APT    MOCLDY    50  36  59 N/A        N/A   
* SEELEY LAKE  N/A       47  31  54 W5G14      N/A   
* THOMP F APT  PTCLDY    41  23  49 N5G12      N/A   
* YAAK HILL    N/A       54  31  42 S2G9       N/A   
--------------------------------

MTZ008-052.055-020300-
SOUTHWEST MONTANA
CITY           SKY/WX    TMP DP  RH WIND       PRES   REMARKS
BOZEMAN        FAIR      48  28  46 W9        30.03R 
DILLON         PTCLDY    45  25  45 W13       30.09R 
W YELLOWSTONE  PTCLDY    37  32  82 SW8       30.11R WCI  31 
* THREE FORKS  CLEAR     48  46  93 N/A        N/A   
* BOULDER HILL N/A       42  19  40 NE1G7      N/A   
* MONIDA PASS  N/A       37  24  59 W6         N/A   WCI  32 
* RAYNOLDS PAS N/A       38  35  89 VRB1       N/A   
* WHITEHALL    N/A       49  27  43 W9G19      N/A   
* WISE RIVER   N/A       42  23  47 W12G24     N/A   
--------------------------------

MTZ009.010-012-014-046-048-049-054-020300-
EAST SLOPES AND CENTRAL MONTANA
CITY           SKY/WX    TMP DP  RH WIND       PRES   REMARKS
GREAT FALLS    CLEAR     46  28  50 SW12      29.91S 
HELENA         CLEAR     52  25  35 W16G26    30.02R 
MALMSTROM AFB  CLEAR     50  30  46 SW14      29.93R 
* CONRAD       PTCLDY    45  28  51 N/A        N/A   
* DEARBORN     N/A       54  29  38 S17G25     N/A   
* EAST GLACIER N/A       44  29  56 W24G34     N/A   
* MONARCH      N/A       41  19  41 SW9        N/A   
* PENDROY      N/A       42  21  43 W9G14      N/A   
* ROGERS PASS  N/A       42  27  55 SE13G32    N/A   
* SAINT MARY   N/A       46  28  50 SW9G23     N/A   
* SWEET GRASS  N/A       49  27  43 W17G26     N/A   
* WHITE SULPH  N/A       44  24  45 W5G15      N/A   
--------------------------------

MTZ011-013-016-021-035-040-045-047-050-051-020300-
NORTH CENTRAL MONTANA
CITY           SKY/WX    TMP DP  RH WIND       PRES   REMARKS
HAVRE          PTCLDY    54  32  43 W12       29.82S 
LEWISTOWN      FAIR      45  34  65 SW12      29.93S 
* CHINOOK      CLEAR     52  37  57 SW3       29.83R 
* FORT BENTON  CLEAR     52  28  40 SW10      29.89R 
* CHESTER      N/A       52  29  41 W11G19     N/A   
* DENTON       N/A       45  29  54 SW11       N/A   
* JUDITH GAP   N/A       45  25  45 W6         N/A   
* LOMA         N/A       56  29  36 SW7        N/A   
--------------------------------

MTZ017.020-022.027-061-062-020300-
NORTHEAST MONTANA
CITY           SKY/WX    TMP DP  RH WIND       PRES   REMARKS
GLASGOW        CLEAR     54  34  47 CALM      29.85R 
GLENDIVE       MOCLDY    46  43  89 W7        29.91R 
JORDAN         CLEAR     45  36  71 CALM      29.90R 
SIDNEY         CLOUDY    52  45  77 W7        29.88R 
WOLF POINT     PTCLDY    48  37  66 W5        29.86R 
* BEAVER HILL  N/A       49  44  83 SW9        N/A   
* CIRCLE       N/A       48  42  80 N/A        N/A   
* LINDSAY DVD  N/A       45  41  86 W8         N/A   
* NAVAJO       N/A       47  37  68 W8         N/A   
--------------------------------

MTZ028.042-056.058-020300-
SOUTHCENTRAL AND SOUTHEAST MONTANA
CITY           SKY/WX    TMP DP  RH WIND       PRES   REMARKSBAKER          CLEAR     45  41  86 W7        29.92R 
BILLINGS       FAIR      50  36  59 SW8       29.97R 
LIVINGSTON     CLEAR     46  32  58 W10       29.99R 
MILES CITY     CLEAR     48  32  54 NW7       29.92S 
* LAUREL APT   CLEAR     45  34  65 N/A        N/A   
* ROUNDUP APT  CLEAR     50  34  54 S5         N/A   
* ALZADA       N/A       45  38  77 W1         N/A   
* HYSHAM       N/A       50  26  39 W1         N/A   
* LAME DEER    N/A       45  29  54 NW4        N/A   
* REED POINT   N/A       50  29  44 W9         N/A   
* ROSCOE HILL  N/A       44  17  34 SE7        N/A   
--------------------------------

REGIONAL REPORTS...DAKOTAS
CITY           SKY/WX    TMP DP  RH WIND       PRES   REMARKS
WILLISTON      MOCLDY    52  45  77 SW8       29.83R 
DICKINSON      LGT RAIN  50  46  86 W7        29.87R 
BEACH          N/A       46  46 100 W8        29.90R 
CROSBY         CLEAR     50  46  86 W12       29.81R 
TIOGA          MOCLDY    48  48 100 SW8       29.85R 
WATFORD CITY   MOCLDY    48  45  89 SW5       29.83S 
BISMARCK       CLOUDY    57  48  72 W8        29.84R 
GRAND FORKS    CLOUDY    61  52  72 W5        29.71R 
FARGO          CLOUDY    63  52  68 SW8       29.76R 
BUFFALO SD     MOCLDY    46  39  77 W7        29.86R 
RAPID CITY     CLOUDY    52  41  66 N8        29.95R 
--------------------------------

REGIONAL REPORTS...WYOMING/IDAHO/WASHINGTON
CITY           SKY/WX    TMP DP  RH WIND       PRES   REMARKS
GILLETTE       MOCLDY    43  37  79 W6        30.00R 
SHERIDAN       PTCLDY    39  34  82 W7        29.99R WCI  34 
CODY           PTCLDY    43  37  79 S7        30.03S 
YELLOWSTONE LA PTCLDY    32  28  85 CALM      30.14R 
SALMON         CLEAR     45  30  56 SE3       30.10R 
MULLAN PASS    MOCLDY    36  34  92 VRB7G18   30.08S WCI  30 
SAND POINT     CLOUDY    55  34  45 SW8       30.01S 
SPOKANE        MOCLDY    57  36  46 SW15      30.03F 
--------------------------------

REGIONAL REPORTS...ALBERTA
CITY           SKY/WX    TMP DP  RH WIND       PRES   REMARKS
CALGARY        LGT RAIN  41  36  82 N21G30    29.85R 
LETHBRIDGE     PTCLDY    52  30  43 SW22G30   29.79R 
MEDICINE HAT   FAIR      50  34  54 SW13      29.76S 
EDMONTON       MOCLDY    43  30  60 NW13      29.82F 
WATERTON GATE  N/A       48  27  44 SW28G43    N/A   
CARDSTON       N/A       48  30  50 W8         N/A   
MILK RIVER     N/A       48  30  50 SW13       N/A   
--------------------------------

REGIONAL REPORTS...SASKATCHEWAN
CITY           SKY/WX    TMP DP  RH WIND       PRES   REMARKS
SWIFT CURRENT  MOCLDY    50  32  50 VRB2      29.79S 
REGINA         FAIR      43  39  86 W8        29.76R 
VAL MARIE      N/A       43  37  79 SW3        N/A   
ASSINIBOIA     N/A       41  36  82 W6         N/A   
CORONACH       N/A       41  36  82 W1         N/A   

--------------------------------